EW1033 Weather Reports


Display with metric or nautical units.
time (UTC)temp
F
wind
direction
speed
MPH
gust
MPH
rain 1hr
in
rain 24hr
in
rain mn
in
humidity
%
barometer
mb
20181218211601 65 267 4.0 12.0 0.00 0.00 0.00 39 1022.8
20181218210055 64 252 5.0 14.0 0.00 0.00 0.00 39 1023.0
20181218204557 65 277 5.0 12.0 0.00 0.00 0.00 39 1023.1
20181218203049 64 240 4.0 11.0 0.00 0.00 0.00 40 1023.2
20181218201522 63 338 0.0 5.0 0.00 0.00 0.00 41 1023.4
20181218200031 62 340 0.0 3.0 0.00 0.00 0.00 43 1023.6
20181218194603 63 281 0.0 6.0 0.00 0.00 0.00 44 1023.6
20181218193035 60 267 0.0 4.0 0.00 0.00 0.00 46 1024.0
20181218191548 59 273 0.0 3.0 0.00 0.00 0.00 49 1024.4
20181218190021 60 273 1.0 7.0 0.00 0.00 0.00 48 1024.7
20181218184515 58 279 0.0 9.0 0.00 0.00 0.00 49 1024.8
20181218183009 59 272 1.0 6.0 0.00 0.00 0.00 50 1025.2
20181218181644 58 235 0.0 6.0 0.00 0.00 0.00 51 1025.5
20181218180159 58 192 0.0 5.0 0.00 0.00 0.00 53 1025.7
20181218174817 57 197 2.0 6.0 0.00 0.00 0.00 54 1025.8
20181218173147 56 250 1.0 4.0 0.00 0.00 0.00 56 1026.0
20181218171659 55 236 0.0 0.0 0.00 0.00 0.00 59 1026.2
20181218170138 54 101 0.0 0.0 0.00 0.00 0.00 62 1026.1
20181218164619 53 101 0.0 0.0 0.00 0.00 0.00 64 1026.1
20181218163105 52 101 0.0 0.0 0.00 0.00 0.00 66 1026.0
20181218161553 51 101 0.0 0.0 0.00 0.00 0.00 68 1026.0
20181218160042 50 101 0.0 0.0 0.00 0.00 0.00 72 1025.9
20181218154554 46 101 0.0 0.0 0.00 0.00 0.00 77 1025.8
20181218153023 44 101 0.0 0.0 0.00 0.00 0.00 81 1025.5
20181218151511 42 101 0.0 0.0 0.00 0.00 0.00 85 1025.2
20181218150010 40 101 0.0 0.0 0.00 0.00 0.00 90 1025.1
20181218144502 38 101 0.0 0.0 0.00 0.00 0.00 91 1025.0
20181218143248 39 101 1.0 4.0 0.00 0.00 0.00 91 1024.8
20181218141703 38 104 1.0 4.0 0.00 0.00 0.00 91 1024.6
20181218140124 38 104 0.0 0.0 0.00 0.00 0.00 91 1024.4
20181218134724 40 104 0.0 2.0 0.00 0.00 0.00 89 1024.1
20181218133158 39 104 0.0 0.0 0.00 0.00 0.00 91 1023.9
20181218131649 40 104 0.0 0.0 0.00 0.00 0.00 89 1023.6
20181218130223 40 104 0.0 0.0 0.00 0.00 0.00 89 1023.6
20181218124613 40 105 0.0 4.0 0.00 0.00 0.00 89 1023.5
20181218123118 41 157 0.0 0.0 0.00 0.00 0.00 90 1023.3
20181218121654 41 158 0.0 0.0 0.00 0.00 0.00 89 1023.3
20181218120136 41 159 0.0 0.0 0.00 0.00 0.00 87 1023.4
20181218114625 42 159 0.0 0.0 0.00 0.00 0.00 86 1023.4
20181218113126 43 159 0.0 0.0 0.00 0.00 0.00 86 1023.4
20181218111608 44 159 0.0 0.0 0.00 0.00 0.00 85 1023.4
20181218110101 45 159 0.0 0.0 0.00 0.00 0.00 82 1023.4
20181218104608 45 159 0.0 0.0 0.00 0.00 0.00 82 1023.5
20181218103121 46 159 0.0 0.0 0.00 0.00 0.00 81 1023.6
20181218101639 45 159 0.0 0.0 0.00 0.00 0.00 81 1023.6
20181218100049 45 159 0.0 0.0 0.00 0.00 0.00 80 1023.5
20181218094612 46 158 0.0 0.0 0.00 0.00 0.00 79 1023.4
20181218093042 47 158 0.0 0.0 0.00 0.00 0.00 76 1023.5
20181218090020 47 158 0.0 0.0 0.00 0.00 0.00 77 1023.3
20181218084523 49 158 0.0 0.0 0.00 0.00 0.00 75 1023.2
20181218083031 48 158 0.0 0.0 0.00 0.00 0.00 75 1023.3
20181218081538 48 158 0.0 0.0 0.00 0.00 0.00 75 1023.3
20181218080014 48 158 0.0 0.0 0.00 0.00 0.00 73 1023.2
20181218074528 49 158 0.0 0.0 0.00 0.00 0.00 71 1023.2
20181218073031 50 158 0.0 0.0 0.00 0.00 0.00 69 1023.2
20181218071507 51 158 0.0 1.0 0.00 0.00 0.00 68 1023.1
20181218070002 51 184 0.0 0.0 0.00 0.00 0.00 67 1023.1
20181218064513 50 67 0.0 0.0 0.00 0.00 0.00 71 1023.0
20181218063009 50 67 0.0 0.0 0.00 0.00 0.00 72 1023.2
20181218061751 50 67 0.0 0.0 0.00 0.00 0.00 70 1023.1
20181218060144 51 67 0.0 0.0 0.00 0.00 0.00 69 1023.0
20181218054758 52 67 0.0 0.0 0.00 0.00 0.00 66 1022.9
20181218053205 52 67 0.0 0.0 0.00 0.00 0.00 66 1022.8
20181218051648 53 67 0.0 0.0 0.00 0.00 0.00 65 1022.8
20181218050212 53 67 0.0 0.0 0.00 0.00 0.00 64 1022.9
20181218044716 54 63 0.0 2.0 0.00 0.00 0.00 62 1022.7
20181218043127 55 59 0.0 4.0 0.00 0.00 0.00 61 1022.6
20181218041633 55 265 0.0 4.0 0.00 0.00 0.00 61 1022.5
20181218040217 55 267 0.0 0.0 0.00 0.00 0.00 62 1023.0
20181218034643 55 267 0.0 0.0 0.00 0.00 0.00 60 1023.1
20181218033159 56 267 0.0 0.0 0.00 0.00 0.00 57 1023.0
20181218031710 57 267 0.0 0.0 0.00 0.00 0.00 56 1023.0
20181218030155 58 267 0.0 2.0 0.00 0.00 0.00 54 1022.9
20181218024733 58 267 0.0 6.0 0.00 0.00 0.00 53 1022.9
20181218023147 59 267 0.0 9.0 0.00 0.00 0.00 52 1023.0
20181218021716 59 278 6.0 10.0 0.00 0.00 0.00 52 1023.0
20181218020139 59 267 1.0 8.0 0.00 0.00 0.00 52 1022.9
20181218014654 59 279 4.0 8.0 0.00 0.00 0.00 51 1022.7
20181218013144 60 276 1.0 4.0 0.00 0.00 0.00 51 1022.7
20181218011614 60 276 0.0 6.0 0.00 0.00 0.00 51 1022.8
20181218010113 60 276 1.0 4.0 0.00 0.00 0.00 50 1022.6
20181218004639 61 276 1.0 4.0 0.00 0.00 0.00 48 1022.4
20181218003114 62 276 1.0 4.0 0.00 0.00 0.00 46 1022.2
20181218001628 62 276 0.0 6.0 0.00 0.00 0.00 44 1022.0
20181218000140 63 275 1.0 8.0 0.00 0.00 0.00 43 1022.0
20181217234646 64 282 3.0 7.0 0.00 0.00 0.00 43 1022.1
20181217233124 64 277 0.0 5.0 0.00 0.00 0.00 43 1022.0
20181217231654 65 269 1.0 8.0 0.00 0.00 0.00 41 1021.9
20181217230202 66 263 2.0 4.0 0.00 0.00 0.00 38 1021.9
20181217224814 67 270 2.0 12.0 0.00 0.00 0.00 36 1021.9
20181217223154 66 283 3.0 9.0 0.00 0.00 0.00 38 1022.0
20181217221622 67 237 2.0 8.0 0.00 0.00 0.00 37 1022.0
20181217220114 67 272 1.0 7.0 0.00 0.00 0.00 38 1022.0
20181217214634 68 306 2.0 9.0 0.00 0.00 0.00 39 1022.0
20181217213144 67 311 0.0 6.0 0.00 0.00 0.00 39 1022.0